User: anonymous   Login
Location: Unspecified
(0.0000°N, 0.0000°E)
Time: 11:00:23
(UTC+00:00)
Language:

STARLINK-11123 [DTC] - Orbit

View from above orbital plane
View from above orbital plane
View from above satellite
View from above satellite

Ground track
Ground track

The orbit is defined by the following mean orbital elements,

1 59948U          26145.41363713 +.00000000 +00000-0 +58546-4 0 00006
2 59948  53.1599 233.2418 0001097  67.6146 292.4988 15.69735230    02
Epoch (UTC): 25 May 2026 09:55:38
Eccentricity: 0.0001097
inclination: 53.1599°
perigee height: 359 km
apogee height: 360 km
right ascension of ascending node: 233.2418°
argument of perigee: 67.6146°
revolutions per day: 15.69735230
mean anomaly at epoch: 292.4988°

The dashed part of the orbit path shows where the satellite is in the earth's shadow,  

DLR